Weather History for KMMV - October, 2012

Change the Weather History Date:

Friday, October 19, 2012

  Actual Average Record
Temperature  
Mean Temperature 56 °F 51 °F  
Max Temperature 61 °F 61 °F 81 °F (1940)
Min Temperature 50 °F 40 °F 26 °F (1949)
Degree Days  
Heating Degree Days 9 14  
Month to date heating degree days 142 215  
Since 1 July heating degree days 274 431  
Cooling Degree Days 0 0  
Month to date cooling degree days 1 0  
Year to date cooling degree days 300 214  
Growing Degree Days 6 (Base 50)    
Moisture  
Dew Point 50 °F    
Average Humidity 85    
Maximum Humidity 93    
Minimum Humidity 77    
Precipitation  
Precipitation 0.16 in 0.12 in 1.43 in (1971)
Month to date precipitation 2.19 1.64  
Year to date precipitation 30.64 25.35  
Snow  
Snow 0.00 in - - ()
Month to date snowfall 0.0  
Snow Depth 0.00 in    
Sea Level Pressure  
Sea Level Pressure 29.90 in    
Wind  
Wind Speed 9 mph (SSW)    
Max Wind Speed 16 mph    
Max Gust Speed 20 mph    
Visibility 8 miles    
Events Rain    
T = Trace of Precipitation, MM = Missing Value Source: NWS Daily Summary

Daily Weather History Graph

Daily Weather History Graph

Search for Another Location

Airport or City:

Trip Planner

Search our weather history database for the weather conditions in past years. The results will help you decide how hot, cold, wet, or windy it might be!

Date:

Astronomy

Oct. 19, 2012 Rise Set
Actual Time 7:34 AM PDT 6:19 PM PDT
Civil Twilight 7:04 AM PDT 6:49 PM PDT
Nautical Twilight 6:30 AM PDT 7:23 PM PDT
Astronomical Twilight 5:56 AM PDT 7:57 PM PDT
Moon 12:32 PM PDT (10/19) 9:54 PM PDT (10/19)
Length of Visible Light 11h 44m
Length of Day
10h 44m
Waxing Crescent, 24% of the Moon is Illuminated
Oct 19
Waxing Crescent
Oct 21
First Quarter
Oct 29
Full
Nov 6
Last Quarter
Nov 13
New

Hourly Weather History & Observations

Time (PDT) Temp. Dew Point Humidity Pressure Visibility Wind Dir Wind Speed Gust Speed Precip Events Conditions
12:53 AM 55.9 °F 48.0 °F 75% 29.94 in 10.0 mi WSW 5.8 mph - N/A   Overcast
1:53 AM 55.9 °F 48.0 °F 75% 29.94 in 10.0 mi WSW 11.5 mph - N/A   Overcast
2:53 AM 55.9 °F 48.0 °F 75% 29.94 in 10.0 mi South 4.6 mph - N/A   Overcast
3:53 AM 54.0 °F 46.0 °F 75% 29.93 in 10.0 mi South 5.8 mph - N/A   Overcast
4:53 AM 54.0 °F 46.9 °F 77% 29.94 in 10.0 mi NW 3.5 mph - N/A   Mostly Cloudy
5:49 AM 53.6 °F 46.4 °F 77% 29.94 in 10.0 mi SW 3.5 mph - 0.00 in   Overcast
5:53 AM 54.0 °F 48.0 °F 80% 29.94 in 10.0 mi SW 4.6 mph - 0.00 in   Overcast
6:53 AM 54.0 °F 48.9 °F 83% 29.94 in 10.0 mi SSE 3.5 mph - N/A   Overcast
7:53 AM 53.1 °F 48.0 °F 83% 29.94 in 10.0 mi SE 5.8 mph - N/A   Overcast
8:30 AM 53.6 °F 48.2 °F 82% 29.95 in 2.5 mi SSE 6.9 mph - 0.00 in Rain Light Rain
8:53 AM 52.0 °F 48.9 °F 89% 29.96 in 2.5 mi South 8.1 mph - 0.01 in Rain Light Rain
9:06 AM 51.8 °F 48.2 °F 88% 29.96 in 1.5 mi SSE 9.2 mph - 0.00 in Rain Light Rain
9:13 AM 51.8 °F 48.2 °F 88% 29.95 in 3.0 mi SSE 10.4 mph - 0.01 in Rain Light Rain
9:53 AM 53.1 °F 48.9 °F 86% 29.95 in 10.0 mi South 9.2 mph - 0.01 in   Overcast
10:53 AM 55.0 °F 50.0 °F 83% 29.94 in 10.0 mi South 11.5 mph - N/A   Overcast
11:15 AM 55.4 °F 50.0 °F 82% 29.94 in 10.0 mi SSE 9.2 mph - N/A   Overcast
11:24 AM 55.4 °F 51.8 °F 88% 29.94 in 10.0 mi SSE 9.2 mph - N/A   Overcast
11:53 AM 55.9 °F 51.1 °F 84% 29.93 in 10.0 mi SSE 8.1 mph - N/A   Overcast
12:53 PM 55.9 °F 52.0 °F 87% 29.92 in 10.0 mi South 8.1 mph - N/A   Overcast
1:53 PM 55.9 °F 52.0 °F 87% 29.89 in 10.0 mi SSE 9.2 mph - N/A   Overcast
2:53 PM 57.0 °F 53.1 °F 87% 29.87 in 10.0 mi SSE 6.9 mph - 0.00 in   Overcast
3:53 PM 59.0 °F 54.0 °F 83% 29.85 in 10.0 mi SSW 15.0 mph - 0.00 in   Overcast
4:00 PM 59.0 °F 53.6 °F 82% 29.85 in 10.0 mi SSW 15.0 mph - N/A   Overcast
4:20 PM 59.0 °F 53.6 °F 82% 29.84 in 10.0 mi SSW 11.5 mph - N/A   Overcast
4:53 PM 60.1 °F 54.0 °F 80% 29.83 in 10.0 mi South 10.4 mph - N/A   Overcast
5:22 PM 57.2 °F 53.6 °F 88% 29.84 in 1.8 mi WSW 12.7 mph - 0.05 in Rain Heavy Rain
5:38 PM 57.2 °F 53.6 °F 88% 29.83 in 3.0 mi SW 9.2 mph - 0.10 in Rain Light Rain
5:53 PM 57.0 °F 54.0 °F 89% 29.83 in 7.0 mi SW 12.7 mph - 0.10 in Rain Light Rain
6:53 PM 57.0 °F 54.0 °F 89% 29.83 in 8.0 mi SW 9.2 mph - 0.01 in Rain Light Rain
7:53 PM 55.9 °F 53.1 °F 90% 29.84 in 6.0 mi SW 12.7 mph - 0.02 in   Partly Cloudy
8:53 PM 55.9 °F 52.0 °F 87% 29.86 in 10.0 mi SSW 10.4 mph - N/A   Mostly Cloudy
9:53 PM 54.0 °F 51.1 °F 90% 29.87 in 10.0 mi SSW 9.2 mph - N/A   Mostly Cloudy
10:12 PM 53.6 °F 51.8 °F 94% 29.88 in 10.0 mi SW 9.2 mph - N/A   Mostly Cloudy
10:40 PM 55.4 °F 50.0 °F 82% 29.87 in 10.0 mi SW 11.5 mph - N/A   Overcast
10:53 PM 55.0 °F 51.1 °F 86% 29.88 in 10.0 mi SW 11.5 mph - 0.00 in Rain Light Rain
11:53 PM 53.1 °F 45.0 °F 74% 29.90 in 10.0 mi West 8.1 mph - 0.01 in   Overcast